Time[GMT],current_u[cm/s](10m),current_v[cm/s](10m),current_u[cm/s](14m),current_v[cm/s](14m),current_u[cm/s](18m),current_v[cm/s](18m),current_u[cm/s](22m),current_v[cm/s](22m),current_u[cm/s](26m),current_v[cm/s](26m),current_u[cm/s](30m),current_v[cm/s](30m),current_u[cm/s](34m),current_v[cm/s](34m),current_u[cm/s](38m),current_v[cm/s](38m),current_u[cm/s](42m),current_v[cm/s](42m),current_u[cm/s](46m),current_v[cm/s](46m),current_u[cm/s](50m),current_v[cm/s](50m),current_u[cm/s](54m),current_v[cm/s](54m)
2009-09-24 01:00,-1.03,-4.68,-2.34,-4.12,0.67,-1.58,3.95,1.47,2.26,0.45,3.89,1.66,8.44,0.70,8.80,0.18,9.04,2.23,11.94,0.16,8.34,-1.10,6.39,-0.84
2009-09-24 02:00,-16.47,6.44,-20.65,2.19,-19.65,3.42,-15.71,2.07,-14.36,2.78,-9.49,2.54,-3.46,2.22,-1.20,3.40,1.15,4.61,3.42,1.83,3.94,-1.35,3.58,-3.33
2009-09-24 03:00,-8.86,11.79,-7.84,11.15,-5.99,9.81,-7.13,4.79,-5.27,3.77,-6.23,1.72,-4.99,1.04,-1.90,2.57,-0.69,0.22,0.36,-2.29,-2.22,-5.23,-2.99,-5.46
2009-09-24 04:00,1.04,14.26,-2.35,13.38,-4.73,11.54,-7.62,7.88,-7.14,6.25,-6.77,4.27,-3.42,4.94,-2.13,3.02,2.90,-0.30,2.31,-3.28,-0.45,-4.51,-2.30,-3.17
2009-09-24 05:00,-1.39,14.39,-5.25,15.45,-6.61,12.97,-8.67,11.11,-10.65,8.97,-10.86,8.28,-8.73,8.49,-5.87,4.74,-3.56,-0.31,-5.16,-3.38,-7.22,-4.51,-8.06,-3.09
2009-09-24 06:00,4.88,8.62,-2.07,9.92,-6.78,12.50,-10.69,11.25,-12.29,10.68,-13.33,12.46,-13.28,14.77,-11.33,10.23,-11.03,2.82,-10.04,-5.23,-11.33,-7.58,-12.20,-7.11
2009-09-24 07:00,5.94,4.97,3.79,7.36,2.72,0.69,-0.34,1.15,-2.96,4.76,-1.65,4.21,0.05,1.26,1.42,-0.21,0.48,-4.13,-2.09,-11.03,-6.01,-16.14,-4.73,-17.32
2009-09-24 08:00,5.58,10.49,4.41,11.29,-1.08,8.33,-3.53,11.37,-2.60,9.97,0.51,7.86,-0.22,11.08,-1.77,9.27,-6.68,9.30,-10.01,8.95,-11.53,4.86,-10.67,1.57
2009-09-24 09:00,8.04,-2.55,3.48,1.64,-2.67,3.07,-2.06,6.69,-1.68,2.53,0.52,0.36,-1.02,-1.13,-3.90,-2.70,-5.89,1.61,-3.58,3.33,-2.64,4.75,-3.43,2.12
2009-09-24 10:00,11.98,-13.17,8.59,-9.05,3.96,-2.49,6.02,1.86,5.92,0.06,4.93,-2.62,1.95,-7.03,-2.36,-6.53,-5.64,-2.80,-6.39,0.11,-4.04,-0.45,9.39,-6.11
2009-09-24 11:00,9.26,-4.59,10.17,-3.80,3.34,-1.11,5.02,5.64,5.64,5.30,4.50,2.78,-0.19,-0.06,-0.91,5.26,-0.91,7.76,-2.01,5.45,-1.46,4.99,1.35,7.48
2009-09-24 12:00,5.73,-3.22,6.01,1.55,7.48,-1.35,4.09,2.03,7.86,6.99,10.51,6.10,8.92,3.34,6.33,5.08,9.67,6.47,9.72,7.74,7.05,8.31,6.07,6.67
2009-09-24 13:00,4.53,0.91,2.38,1.11,0.43,2.10,-0.51,11.00,3.80,12.67,6.16,8.16,8.49,6.23,5.14,7.02,5.42,7.11,9.97,4.37,12.81,2.50,9.59,3.53
2009-09-24 14:00,0.82,-1.74,0.44,1.69,1.95,8.28,2.91,15.33,5.59,11.53,5.19,1.83,6.86,0.76,5.80,3.68,3.65,2.84,7.76,0.19,10.17,-1.30,7.67,-0.57
2009-09-24 15:00,-7.84,12.19,-13.73,12.76,-9.19,15.03,0.76,18.77,3.80,22.26,2.45,16.55,1.76,8.95,5.91,7.56,6.44,8.97,5.72,8.24,7.92,4.61,9.89,2.16
2009-09-24 16:00,-2.65,17.25,-4.59,20.33,2.86,16.57,11.05,12.09,10.91,7.57,5.22,2.46,2.88,-0.93,5.30,0.40,5.75,1.37,0.88,0.57,-0.29,-2.58,1.07,-6.15
2009-09-24 17:00,2.30,20.99,-0.05,19.05,3.44,11.74,5.40,6.48,-0.87,4.75,-7.21,2.58,-9.76,0.59,-5.32,0.74,-1.47,0.40,-5.53,2.86,-7.64,2.25,-6.98,-3.92
2009-09-24 18:00,3.08,17.26,1.93,14.42,4.99,5.73,6.01,2.59,3.36,2.75,-4.72,-0.24,-5.38,-0.12,-2.77,1.27,-2.15,3.43,-2.96,4.76,-1.17,1.85,-2.84,-2.39
2009-09-24 19:00,,,,,,,,,,,,,,,,,,,,,,,,
2009-09-24 20:00,8.19,12.61,8.42,6.84,6.08,0.22,5.15,-3.70,2.81,-2.83,1.60,1.30,-4.02,3.41,-7.25,3.40,-5.37,4.47,-1.00,3.77,1.71,3.42,-1.89,1.11
2009-09-24 21:00,14.25,1.87,13.90,0.21,8.62,-3.11,3.02,-4.64,1.11,0.12,-3.15,2.93,-4.94,4.08,-0.88,5.16,-0.12,4.34,2.18,3.24,-0.17,3.80,-2.89,3.84
2009-09-24 22:00,17.27,-4.54,21.39,-7.60,16.73,-8.03,12.00,-11.81,5.70,-9.17,2.29,-3.19,1.37,-2.20,2.41,-2.53,4.99,-4.58,1.80,-4.37,-2.70,-2.87,-6.36,-2.48
2009-09-24 23:00,17.32,-6.50,16.08,-8.32,10.76,-5.81,6.43,-7.39,5.13,-3.29,3.10,5.07,3.61,5.12,3.71,4.42,0.82,2.53,-2.08,4.60,-4.74,6.22,-5.53,6.09
2009-09-25 00:00,14.91,-2.52,9.12,-5.88,4.94,-4.08,1.02,-4.91,-0.79,-3.36,3.10,2.57,3.58,6.99,7.05,6.54,2.87,4.80,-11.47,8.21,-18.17,15.11,-7.39,11.38
2009-09-25 01:00,12.28,-2.45,4.10,-3.70,-0.04,-0.95,-1.72,0.54,-0.44,4.35,3.24,4.59,5.64,5.30,10.13,7.76,9.80,8.18,9.71,11.69,8.80,10.18,7.41,8.52
2009-09-25 02:00,5.63,0.71,-1.41,1.26,-5.06,2.69,-5.27,5.54,-4.13,5.57,0.38,6.88,9.96,9.06,15.27,9.78,11.91,9.52,10.35,10.22,9.65,8.34,6.67,4.97
2009-09-25 03:00,0.86,4.52,-8.20,10.94,-8.10,12.01,-5.72,13.85,-4.74,12.99,-1.52,11.95,3.38,12.66,9.49,8.51,11.11,9.40,7.03,8.72,4.76,9.73,3.51,8.32
2009-09-25 04:00,-0.84,4.65,-8.33,13.51,-8.72,13.08,-6.01,12.72,-3.96,13.53,0.64,12.79,3.42,8.61,5.73,3.55,9.95,-2.30,8.69,-2.98,5.31,-1.05,3.89,-0.11
2009-09-25 05:00,-3.97,9.67,-8.06,17.96,-5.55,19.32,-3.84,17.42,-1.85,14.88,2.77,9.77,5.82,5.76,6.63,2.25,8.56,-1.14,4.94,-3.35,1.50,-3.00,0.24,-0.45
2009-09-25 06:00,-7.25,17.67,-7.49,18.85,0.49,22.54,1.21,21.50,-1.42,16.98,1.10,12.62,4.10,6.30,2.40,0.70,0.81,-3.83,-3.66,-4.93,-5.51,-3.59,-7.08,-0.72
2009-09-25 07:00,2.00,11.32,5.31,16.76,7.04,14.77,1.67,12.47,-0.27,8.78,-0.94,4.62,-4.65,-0.84,-6.36,-4.26,-10.11,-4.62,-14.38,-2.85,-14.28,1.45,-12.75,0.86
2009-09-25 08:00,,,,,,,,,,,,,,,,,,,,,,,,
2009-09-25 09:00,11.77,1.78,11.74,2.60,7.40,0.71,2.64,-0.48,-0.33,-2.08,-4.40,0.80,-10.00,1.77,-13.21,3.85,-14.08,8.59,-13.21,8.85,-12.97,4.44,-9.30,-0.63
2009-09-25 11:00,,,,,,,,,,,,,,,,,,,,,,,,
2009-09-25 12:00,,,,,,,,,,,,,,,,,,,,,,,,
2009-09-25 13:00,-11.44,0.30,-5.91,2.02,5.80,1.18,10.26,-2.31,10.94,-0.34,11.33,5.08,11.45,7.52,10.75,8.14,13.79,9.14,13.43,7.89,9.70,7.11,8.41,5.79
2009-09-25 14:00,-17.25,7.67,-11.22,8.80,1.69,3.83,-0.28,-1.54,-2.31,1.83,1.60,6.30,5.54,8.50,6.73,9.05,7.93,9.93,11.57,6.40,10.81,4.00,6.87,4.30
2009-09-25 15:00,-10.69,9.48,-1.42,6.98,-1.27,-1.72,-1.94,0.58,0.79,3.36,4.97,2.60,5.80,4.40,7.71,6.42,10.89,4.44,12.71,2.15,11.20,-0.16,6.22,-0.26
2009-09-25 16:00,-8.55,0.73,-0.90,5.57,-2.39,-0.39,-7.46,-0.51,-3.91,-1.25,-0.13,-2.75,4.28,-6.46,10.21,-7.85,14.28,-7.49,16.44,-8.84,17.40,-10.33,14.35,-12.37
2009-09-25 17:00,,,,,,,,,,,,,,,,,,,,,,,,
2009-09-25 18:00,-8.08,10.87,-1.27,12.55,6.74,2.60,6.11,5.12,6.23,5.05,7.24,1.60,7.62,-0.06,11.41,-1.98,16.89,-3.60,15.73,-8.53,13.83,-10.23,9.39,-10.38
2009-09-25 19:00,-8.35,3.60,1.18,0.24,2.88,-10.20,0.76,-6.86,3.58,-6.56,3.51,-7.73,1.06,-6.46,5.69,-7.71,8.92,-10.21,6.15,-14.98,1.88,-18.20,-1.16,-16.70
2009-09-25 20:00,-9.12,11.61,1.11,7.62,5.21,-1.08,6.71,1.65,10.98,-0.85,9.04,0.45,8.78,2.05,10.70,0.11,9.53,-3.36,5.86,-6.52,-0.00,-6.04,-2.23,-2.01
2009-09-25 21:00,-7.13,3.02,5.13,0.98,8.60,-5.19,13.88,-6.15,13.02,-5.67,11.57,-3.60,12.74,-6.17,9.22,-9.08,6.41,-10.52,2.91,-8.53,-0.07,-4.40,0.91,-0.98
2009-09-25 22:00,-9.34,-4.40,1.28,-7.23,4.75,-15.18,6.29,-19.73,3.88,-18.25,1.70,-15.44,0.05,-17.28,-2.55,-19.08,-6.13,-16.80,-7.43,-13.43,-6.37,-9.57,-3.87,-7.07
2009-09-25 23:00,-7.49,-1.46,3.16,-6.16,11.55,-15.27,7.77,-17.31,5.74,-18.22,5.46,-17.26,3.80,-16.91,1.48,-17.17,1.00,-12.32,0.41,-6.76,2.74,-6.18,6.12,-7.38
2009-09-26 00:00,-1.74,1.68,7.35,-0.56,16.92,-8.70,12.11,-12.92,9.45,-13.07,17.71,-13.89,17.40,-16.38,11.67,-14.61,9.31,-10.82,8.99,-5.08,14.22,-2.30,12.89,-0.61
2009-09-26 01:00,-2.84,6.15,-0.73,5.00,6.92,-0.16,16.16,-10.38,16.97,-13.48,15.95,-13.57,21.13,-18.10,21.28,-21.81,17.29,-16.72,14.47,-12.44,17.11,-7.92,20.36,-7.28
2009-09-26 02:00,1.38,10.61,2.03,8.72,6.67,2.47,14.08,-9.32,12.88,-14.47,10.31,-14.59,14.90,-19.61,16.02,-23.44,14.21,-21.16,12.52,-16.45,12.87,-13.01,15.08,-10.59
2009-09-26 03:00,7.48,16.46,8.69,14.83,12.76,6.96,12.85,-7.60,8.10,-5.24,8.24,-7.17,12.08,-13.87,9.41,-14.02,10.54,-12.54,9.79,-8.91,10.72,-7.08,10.49,-8.08
2009-09-26 04:00,,,,,,,,,,,,,,,,,,,,,,,,
2009-09-26 05:00,,,,,,,,,,,,,,,,,,,,,,,,
2009-09-26 06:00,14.63,3.76,9.73,3.05,1.94,-1.31,-2.14,-7.29,-1.24,-3.59,-4.05,-8.58,-5.91,-7.56,-8.14,-4.57,-10.83,-2.86,-10.22,-4.24,-6.49,-8.46,-3.73,-12.55
2009-09-26 07:00,7.54,7.00,5.76,7.73,-0.87,5.48,-6.80,1.87,-7.19,1.44,-4.36,3.52,-5.88,1.93,-5.39,3.11,-4.22,2.31,-4.83,1.19,-2.86,-3.75,-1.41,-7.29
2009-09-26 08:00,16.06,3.86,10.16,4.43,0.32,5.30,-0.53,5.37,-1.82,4.78,-8.16,4.39,-3.76,6.09,-0.34,8.65,-0.88,8.70,-3.42,5.98,-1.71,1.58,-1.13,1.02
2009-09-26 09:00,,,,,,,,,,,,,,,,,,,,,,,,
2009-09-26 10:00,12.34,-16.19,10.83,-12.46,7.10,-6.47,4.92,-5.44,3.21,-2.08,2.60,-2.47,-0.98,-3.41,-2.99,-2.96,-2.73,-4.55,-3.84,-5.39,-5.34,-6.67,-6.25,-7.14
2009-09-26 11:00,4.31,-13.33,3.90,-11.57,1.95,-4.53,1.51,-4.45,1.68,-5.03,0.12,1.39,2.35,0.17,1.01,-3.46,-4.94,-9.47,-6.33,-9.35,-4.09,-5.26,-3.74,-4.32
2009-09-26 12:00,0.49,-14.13,-0.16,-13.70,3.16,-8.66,6.11,-6.65,6.95,-6.30,8.14,-5.02,5.71,-7.40,-1.85,-8.98,-5.59,-9.76,-5.43,-8.15,-5.77,-7.00,-6.22,-4.74
2009-09-26 13:00,-5.49,-1.19,-6.12,-0.44,-2.40,1.80,1.12,2.93,1.16,1.38,3.17,2.70,1.50,1.27,0.83,1.08,-2.43,0.12,-6.65,-0.07,-6.28,-0.27,-3.53,0.32
2009-09-26 14:00,-3.19,-6.56,-3.88,-6.34,0.85,-1.84,5.33,-2.19,5.50,-7.77,7.25,-6.63,7.75,-6.90,7.92,-9.98,6.47,-10.72,4.30,-6.87,2.20,-4.67,2.67,-3.80
2009-09-26 15:00,-9.26,-2.19,-7.58,-1.17,-2.62,1.11,0.88,-2.66,1.49,-5.81,2.78,-4.50,0.05,-3.01,0.95,-8.58,1.51,-11.23,1.21,-7.36,1.35,-4.61,2.15,-4.16
2009-09-26 16:00,-6.33,8.46,-6.39,9.38,-2.04,8.05,9.92,3.84,11.84,-1.64,12.43,-2.62,12.30,-1.09,9.94,-6.57,8.86,-9.29,9.75,-7.67,9.21,-3.35,9.72,-3.31
2009-09-26 17:00,-11.16,9.66,-14.38,12.47,-9.67,9.57,2.81,0.72,4.72,-5.08,2.82,-5.74,1.88,-8.20,0.77,-10.82,-0.18,-12.56,0.34,-12.20,-0.01,-8.86,1.58,-5.06
2009-09-26 18:00,-0.65,18.25,-0.93,20.98,-0.55,14.01,4.59,1.76,2.75,-1.91,0.60,-3.47,0.88,-4.43,1.53,-7.37,0.53,-9.64,2.82,-9.28,3.89,-8.66,6.03,-6.36
2009-09-26 19:00,3.87,15.61,6.05,19.58,4.01,6.59,1.79,-2.19,-1.99,-3.19,-3.98,-3.14,-3.84,-5.39,-2.87,-9.80,-2.97,-12.64,-4.03,-10.45,-0.95,-9.24,-1.59,-7.03
2009-09-26 20:00,12.37,9.35,15.57,14.45,9.10,1.31,6.79,-3.64,3.15,-0.43,-1.18,-2.74,-7.97,-6.60,-9.00,-8.78,-8.59,-8.76,-6.91,-8.06,-3.05,-8.81,-0.99,-8.00
2009-09-26 21:00,9.33,4.08,11.58,6.72,3.84,-0.65,-0.21,-3.19,-2.56,-1.58,-10.20,-3.61,-15.00,-4.28,-12.88,-2.62,-12.35,-2.67,-10.98,-5.92,-10.54,-7.77,-11.57,-5.68
2009-09-26 22:00,21.39,1.67,22.41,1.76,9.06,-3.91,7.45,-5.53,7.00,-5.04,-1.66,-4.65,-3.97,-2.83,-1.49,-1.69,-2.55,-3.04,-2.21,-4.92,-0.89,-4.43,-1.36,-2.48
2009-09-26 23:00,15.09,0.77,14.50,-1.49,1.67,-7.85,1.09,-8.02,-0.99,-6.96,-5.89,-5.16,-4.70,-5.65,-3.33,-3.58,-3.92,-4.06,-5.42,-3.56,-5.69,-2.29,-6.12,0.61
2009-09-27 00:00,,,,,,,,,,,,,,,,,,,,,,,,
2009-09-27 01:00,23.24,-2.16,17.50,-8.53,3.43,-10.67,-3.65,-8.88,-2.87,-10.84,-3.51,-7.59,-4.50,-7.05,-0.65,-9.88,-2.18,-10.01,-1.56,-9.63,-1.33,-5.08,-4.11,-3.39
2009-09-27 02:00,22.08,3.23,14.88,-1.38,1.66,-3.89,-5.20,-3.60,-5.63,-4.98,-4.49,-1.73,-4.88,-1.84,-1.59,-5.26,0.13,-8.30,0.39,-7.39,0.61,-4.93,1.75,-2.41
2009-09-27 03:00,24.45,8.30,19.34,6.18,8.07,8.40,1.98,12.46,3.38,11.61,4.75,14.41,4.59,13.53,6.52,6.91,6.91,2.75,6.80,4.18,8.19,6.56,8.67,6.70
2009-09-27 04:00,20.50,5.79,17.12,5.22,6.24,5.37,-1.36,9.29,-0.89,10.16,1.32,10.80,3.24,7.09,5.06,0.86,4.36,-3.52,2.71,-2.85,5.40,-2.07,8.22,-1.03
2009-09-27 05:00,12.23,9.83,9.34,10.44,0.33,13.12,-6.60,17.24,-5.83,16.01,-3.58,15.10,-0.35,10.11,-0.27,3.78,-1.38,0.43,-2.17,0.30,-0.31,1.06,1.44,0.42
2009-09-27 06:00,11.38,3.85,8.16,4.89,-1.88,11.43,-3.64,13.52,-3.23,11.77,-0.67,9.08,0.34,2.39,-3.21,-1.15,-2.36,-2.98,-1.09,-3.76,0.11,-4.66,1.49,-5.09
2009-09-27 07:00,14.43,16.93,10.43,17.43,-2.09,20.33,-3.93,22.71,-3.21,20.94,0.85,19.52,5.00,10.32,2.59,5.76,-2.65,4.43,-2.81,2.83,-2.82,0.01,-0.56,-1.31
2009-09-27 08:00,13.97,18.15,9.86,17.57,0.42,23.15,0.75,24.50,4.32,21.58,7.58,17.53,6.34,10.40,3.14,4.57,-1.54,2.78,-5.09,1.01,-7.24,-1.60,-5.48,-2.64
2009-09-27 09:00,18.51,9.37,11.91,10.57,8.34,15.67,10.39,12.21,11.05,5.32,6.69,0.29,0.73,-3.22,-0.81,-3.99,-0.77,-2.00,-4.65,-1.57,-8.95,-3.24,-11.06,-6.36
2009-09-27 10:00,14.04,2.23,10.07,6.17,4.32,5.54,5.52,-1.41,2.00,-5.04,-4.13,-7.98,-7.20,-8.88,-10.60,-6.85,-15.51,-4.33,-18.09,-4.04,-20.61,-5.40,-20.27,-8.01
2009-09-27 11:00,21.16,3.17,12.94,9.20,4.88,6.84,4.24,0.82,1.94,0.15,-1.29,-0.58,-3.19,-2.29,-8.77,-1.73,-9.72,1.53,-8.52,2.41,-7.64,2.97,-7.63,3.29
2009-09-27 12:00,20.24,6.33,17.98,11.20,9.36,12.53,7.59,5.03,5.81,4.72,-0.55,4.74,-3.89,3.34,-5.65,4.70,-4.25,5.63,-4.70,5.40,-4.61,7.92,-5.67,9.07
2009-09-27 13:00,13.07,2.68,15.11,3.90,11.22,6.51,7.16,3.66,4.08,-0.79,1.88,0.34,-0.90,3.07,-3.86,1.79,-4.16,1.39,-2.01,-1.32,0.03,-0.82,2.34,0.89
2009-09-27 14:00,4.65,10.11,9.96,4.06,14.11,2.35,12.67,5.48,10.58,3.72,7.84,1.35,6.76,2.18,5.18,2.24,3.04,-0.05,2.96,-1.22,1.80,-2.60,2.26,-3.09
2009-09-27 15:00,1.18,16.28,1.26,9.22,3.16,0.61,6.92,3.06,8.99,2.73,7.08,0.72,7.76,-1.59,7.45,-2.30,4.83,-1.92,4.33,-1.96,2.95,-3.31,0.64,-3.98
2009-09-27 16:00,-3.55,29.59,-4.59,25.33,-5.53,14.64,-1.37,8.25,6.96,6.83,8.09,6.53,6.02,4.36,2.00,2.77,-0.37,1.98,-1.39,2.62,-2.07,2.10,-2.93,2.89
2009-09-27 17:00,,,,,,,,,,,,,,,,,,,,,,,,
2009-09-27 18:00,6.49,31.59,6.29,26.95,4.51,17.36,0.76,7.72,3.42,1.83,5.07,2.63,3.46,2.78,4.98,1.14,1.94,-0.58,-1.58,-1.71,-3.10,-2.57,-3.91,-3.75
2009-09-27 19:00,14.77,26.82,12.84,20.22,4.91,9.56,-6.30,0.87,-2.29,-2.13,-0.07,-1.90,-1.36,-0.71,0.57,-2.65,1.24,-4.95,-1.32,-5.80,-1.49,-8.46,-2.66,-9.43
2009-09-27 20:00,10.20,31.74,11.41,27.61,8.97,19.92,-3.13,9.29,-7.10,3.97,-5.88,4.43,-5.12,5.38,-4.60,3.97,-5.11,2.15,-6.99,1.81,-6.60,-1.30,-3.93,-2.61
2009-09-27 21:00,19.52,21.96,20.40,15.03,12.25,5.14,-4.06,1.42,-5.70,1.67,-3.18,1.26,-3.91,1.98,-4.41,1.52,-3.58,-0.21,-4.28,-2.81,-4.28,-6.04,-1.52,-7.63
2009-09-27 22:00,15.26,15.51,13.09,8.31,-3.49,3.04,-13.11,3.87,-10.36,3.01,-7.92,3.21,-7.41,2.52,-9.34,1.65,-12.82,0.00,-18.42,-2.57,-19.82,-5.27,-17.38,-6.85
2009-09-27 23:00,,,,,,,,,,,,,,,,,,,,,,,,
2009-09-28 00:00,20.76,0.97,19.64,-4.47,6.57,-5.37,-2.27,0.27,3.68,-0.49,5.48,-1.63,2.28,-2.46,-4.49,-3.19,-6.89,-0.66,-4.92,2.94,-3.66,3.62,-4.70,2.17
2009-09-28 01:00,10.01,-1.45,10.29,-4.91,0.27,-7.32,-8.19,-3.33,-2.15,-5.84,-1.23,-5.78,-2.60,-7.85,-6.25,-8.18,-9.64,-6.57,-8.30,-3.68,-4.22,-6.23,-5.50,-3.28
2009-09-28 02:00,17.80,-0.32,12.88,-4.15,-1.33,-0.80,-1.77,2.50,3.60,-6.24,6.83,-6.96,4.39,-9.66,3.29,-7.69,0.60,-5.24,0.81,-4.56,3.94,-3.85,4.29,-4.69
2009-09-28 03:00,19.53,6.96,15.40,2.21,7.00,-0.77,5.72,5.74,11.05,-0.73,14.17,-4.29,11.28,-5.45,9.05,-8.50,8.76,-6.09,9.01,-3.72,10.82,-3.50,11.74,-3.44
2009-09-28 05:00,9.95,7.29,4.47,3.60,-6.39,6.88,-2.94,11.85,-1.42,5.94,2.60,3.57,3.97,-1.45,2.12,-6.88,-0.43,-8.15,-0.14,-8.06,1.87,-6.75,1.59,-7.56
2009-09-28 06:00,7.38,12.89,-0.23,9.00,-9.74,15.49,-2.76,17.63,-3.68,13.30,1.35,7.48,-0.12,3.61,-4.82,-0.99,-6.27,-3.50,-5.64,-2.80,-5.05,-2.31,-4.76,-1.18
2009-09-28 07:00,4.52,13.41,-2.06,10.96,-11.30,15.14,-4.62,18.65,-2.30,12.87,-1.14,6.02,-1.58,2.56,-5.96,0.44,-8.32,-2.54,-4.77,-3.27,-4.02,-3.36,-3.17,-5.20
2009-09-28 08:00,6.86,7.53,-1.43,11.67,-5.48,18.40,3.49,13.00,1.90,7.75,-1.19,2.99,-5.58,1.28,-9.88,3.15,-11.44,0.30,-7.83,-3.85,-4.62,-4.16,-4.76,-5.46
2009-09-28 09:00,2.33,12.35,-4.45,19.85,-4.60,20.01,3.33,17.12,-0.34,14.70,-4.76,11.63,-7.90,7.07,-11.77,9.27,-17.42,6.47,-13.97,2.89,-10.95,0.03,-12.50,-2.51
2009-09-28 10:00,6.90,5.25,6.51,13.36,5.32,18.85,10.00,10.32,8.11,7.89,2.14,4.79,-1.24,1.41,-3.33,-1.08,-5.07,-2.63,-4.62,-5.21,-6.29,-9.86,-7.30,-11.72
2009-09-28 11:00,13.47,3.11,14.48,11.42,15.12,9.21,13.21,3.65,7.70,5.38,1.74,3.32,-1.72,2.31,-4.13,3.07,-0.61,1.38,-0.33,0.42,-3.64,-2.52,-6.94,-6.20
2009-09-28 12:00,6.54,2.22,9.92,8.84,8.78,5.59,4.42,3.06,-1.59,5.79,-7.44,4.07,-9.00,4.77,-9.32,4.78,-6.85,2.06,-7.51,2.18,-10.50,0.99,-13.68,-0.98
2009-09-28 13:00,9.10,-3.69,13.48,-0.85,12.24,-4.44,8.34,-4.65,3.83,-2.42,-0.62,-1.43,0.51,-0.68,-0.14,-1.29,-1.08,-5.21,-2.32,-5.26,-4.79,-5.36,-7.11,-5.62
2009-09-28 14:00,2.00,-3.27,6.74,-0.95,8.75,-3.90,7.24,-5.17,3.41,-0.98,1.27,-1.50,1.70,-1.90,0.76,-0.82,-2.65,-2.34,-3.66,-3.88,-4.82,-2.76,-6.37,-1.03
2009-09-28 15:00,8.91,-8.02,14.04,-11.31,13.56,-17.50,12.29,-13.18,9.04,-7.05,7.56,-5.91,8.89,-7.61,5.45,-7.58,1.51,-8.73,-0.05,-9.08,-1.47,-8.87,-0.78,-9.81
2009-09-28 16:00,4.13,7.25,8.28,3.05,7.51,0.32,6.67,0.70,6.01,4.05,5.49,5.46,7.41,4.25,7.14,1.25,4.87,-0.97,2.93,-0.39,2.82,1.03,4.01,2.32
2009-09-28 17:00,-0.69,19.80,4.63,17.30,9.11,7.67,4.86,5.48,4.73,8.05,6.66,11.43,9.22,8.74,12.20,5.65,9.69,2.83,7.98,0.87,9.27,2.50,9.35,3.67
2009-09-28 18:00,-1.37,24.29,3.81,20.81,5.73,6.78,3.49,2.69,3.55,4.27,5.05,4.81,7.15,2.61,8.18,-1.25,5.10,-3.20,1.96,-4.22,3.75,-2.13,3.90,-0.53
2009-09-28 19:00,7.59,25.35,6.26,16.73,-1.96,5.99,-6.23,5.99,-4.54,6.28,-1.70,5.44,1.41,3.02,3.89,-1.89,2.87,-4.47,0.23,-5.77,0.19,-4.22,2.84,-1.88
2009-09-28 20:00,7.36,22.57,6.22,17.55,-3.12,7.11,-8.56,7.19,-7.72,8.58,-4.22,6.58,-0.41,4.26,0.98,-0.13,-0.54,-5.26,-2.23,-5.55,-0.80,-4.40,0.83,-3.20
2009-09-28 21:00,3.73,25.37,5.93,26.74,-4.46,16.30,-8.65,14.25,-7.24,11.22,-6.58,10.37,-5.94,7.12,-8.78,4.73,-12.04,3.04,-14.40,3.29,-10.16,4.11,-7.48,3.85
2009-09-28 22:00,8.05,17.36,12.98,19.74,7.40,11.75,-5.25,5.13,-6.71,5.12,-2.65,1.93,-1.18,-2.01,-4.04,-3.99,-6.62,-4.44,-6.95,-6.51,-4.72,-9.51,-4.15,-10.38
2009-09-28 23:00,,,,,,,,,,,,,,,,,,,,,,,,
2009-09-29 00:00,15.70,4.38,9.16,2.16,-5.76,4.36,-8.87,3.97,-7.48,0.63,-4.82,-2.76,-2.45,-7.28,-4.68,-7.52,-8.14,-4.57,-10.11,-3.90,-7.93,-5.65,-7.64,-6.30
2009-09-29 01:00,27.32,5.28,15.87,2.04,3.92,6.56,0.89,3.38,-0.13,0.80,2.25,-3.41,0.42,-4.98,-2.26,0.59,-5.91,2.75,-4.72,-0.24,-4.05,-1.81,-2.49,-2.19
2009-09-29 02:00,22.86,-5.50,6.55,-4.23,0.94,-0.35,-3.84,-3.62,-3.51,-7.59,-4.50,-9.55,-5.65,-8.11,-7.19,-2.83,-8.40,-0.48,-6.53,-1.91,-4.63,-4.48,-3.00,-5.77
2009-09-29 03:00,19.23,0.52,4.22,0.19,-0.23,6.50,-0.91,4.53,-4.30,1.87,-2.22,-2.73,-3.04,-3.49,-1.06,0.42,-0.35,5.11,0.86,5.25,1.54,2.22,2.40,0.70
2009-09-29 04:00,9.76,7.23,-5.17,9.12,-12.17,15.61,-3.90,13.34,-4.65,8.43,-6.47,4.67,-4.64,1.98,-1.16,3.62,0.90,7.24,2.79,6.86,1.67,4.97,0.89,3.38
2009-09-29 05:00,8.06,10.90,-2.24,16.22,-2.78,21.27,4.04,12.54,-1.22,7.04,-1.03,3.87,-0.65,2.21,1.49,2.73,4.37,4.30,9.60,5.31,9.48,5.69,8.61,2.62
2009-09-29 06:00,5.46,11.60,-3.00,17.04,-1.42,22.30,4.72,12.01,0.96,5.28,1.28,2.04,1.30,2.67,2.62,-0.07,6.30,-0.87,8.64,0.03,7.08,-1.06,4.70,-2.17
2009-09-29 07:00,1.46,19.60,-5.51,26.31,-2.99,26.63,2.00,13.82,-1.41,8.76,-4.32,7.28,-1.59,7.56,2.56,8.35,4.57,5.40,5.91,1.52,3.92,1.56,3.01,2.55
2009-09-29 08:00,6.07,9.17,0.38,18.66,1.32,16.85,1.83,4.08,0.44,0.65,-2.46,-1.55,1.04,-1.78,2.95,-2.26,3.72,-5.58,2.05,-7.01,0.92,-5.98,1.10,-4.47
2009-09-29 09:00,3.45,12.78,-1.49,20.40,-0.16,21.94,-2.20,8.94,-4.42,5.48,-5.69,3.44,-4.66,1.34,-4.49,1.81,-3.20,-0.83,-4.23,-4.78,-3.36,-4.53,-2.77,-2.27
2009-09-29 10:00,1.59,13.80,-0.53,20.68,1.64,16.11,-0.64,5.02,-3.50,4.50,-6.01,3.45,-6.52,1.64,-6.53,1.32,-8.94,-0.43,-9.60,-5.31,-6.51,-6.59,-4.12,-4.43
2009-09-29 11:00,6.54,8.27,5.51,15.36,7.71,10.69,4.04,0.45,-0.00,-1.77,-4.56,-0.08,-3.79,-1.63,0.29,-2.42,-2.87,-2.30,-6.10,-5.85,-5.99,-8.00,-3.21,-9.69
2009-09-29 12:00,1.42,5.83,1.36,9.25,1.51,4.09,-5.01,-2.82,-11.07,0.10,-12.01,3.68,-13.01,0.67,-12.31,-2.45,-12.96,-3.06,-15.57,-4.13,-14.72,-7.74,-13.96,-8.56
2009-09-29 13:00,10.67,9.48,12.25,9.42,9.90,3.21,-0.36,-0.21,-5.09,5.28,-3.41,7.75,-2.80,5.64,-4.01,2.68,-6.98,2.86,-8.59,2.28,-7.57,-0.13,-6.51,-1.59
2009-09-29 14:00,13.34,-4.64,11.48,-6.12,-3.44,-8.19,-7.89,-1.89,-6.40,0.52,-4.11,0.15,-5.99,-2.69,-9.20,-5.61,-12.21,-4.92,-12.95,-7.02,-10.14,-8.07,-8.65,-7.84
2009-09-29 15:00,8.83,-1.69,7.56,-5.19,-4.89,-3.93,-9.17,3.57,-5.03,7.59,-1.68,5.76,-3.56,2.92,-6.52,0.91,-9.68,1.75,-8.98,1.13,-5.97,1.17,-6.15,3.20
2009-09-29 16:00,3.03,3.18,3.09,2.26,-1.95,-0.47,-4.39,5.38,0.35,8.44,4.80,6.40,2.34,5.17,-2.06,4.92,-3.26,6.86,-2.96,5.49,-2.55,6.23,-1.32,6.28
2009-09-29 17:00,-4.06,7.46,-3.86,8.56,-3.33,5.69,-7.11,1.88,-6.31,5.55,-2.52,5.41,8.39,5.16,12.15,0.84,10.68,-0.52,8.66,-0.39,8.77,-0.77,9.25,-1.36
2009-09-29 18:00,4.35,12.21,4.62,11.98,-0.19,8.49,-2.38,9.20,-2.64,9.75,2.01,7.36,8.31,2.22,10.01,0.32,9.63,-0.52,9.67,-0.30,10.43,-1.12,12.33,-1.92
2009-09-29 19:00,-0.20,22.76,-0.67,21.16,-2.46,15.53,-0.28,16.28,-0.42,14.98,5.09,7.53,6.33,4.35,4.23,4.78,3.34,3.89,2.55,3.04,3.07,1.63,3.74,0.05
2009-09-29 20:00,1.81,21.26,2.48,18.23,1.16,14.92,4.50,13.82,3.61,11.89,5.40,4.70,4.98,2.92,1.47,3.87,0.11,2.84,-1.69,1.49,-1.44,-0.42,-1.94,-1.19
2009-09-29 21:00,4.95,10.51,6.37,8.84,1.49,2.73,3.12,1.43,1.83,1.58,1.38,-6.16,0.70,-10.22,0.73,-8.54,0.99,-9.82,1.30,-11.92,-0.54,-12.76,-1.74,-11.87
2009-09-29 22:00,4.03,13.99,-0.39,14.89,-7.12,14.38,-5.58,11.60,0.23,7.05,-2.75,0.13,-6.32,-4.04,-7.82,-4.27,-10.87,-3.80,-7.74,-6.33,-2.37,-8.30,-2.65,-9.11
2009-09-29 23:00,,,,,,,,,,,,,,,,,,,,,,,,
2009-09-30 00:00,8.19,4.06,0.43,7.42,-2.47,9.17,2.18,-1.03,3.07,-5.87,-6.08,-3.44,-9.34,-2.63,-7.93,-3.88,-8.25,-3.87,-9.16,-6.43,-11.47,-6.38,-10.17,-6.20
2009-09-30 01:00,21.22,-1.30,9.21,2.69,1.83,-0.19,0.17,-8.08,-4.29,-8.86,-3.77,-5.27,-4.47,-3.60,-5.16,-0.88,-4.85,-0.17,-5.12,-1.39,-4.48,-3.92,-4.00,-4.50
2009-09-30 02:00,24.86,-6.27,13.71,-0.57,3.77,2.77,-1.11,-3.34,-5.24,-1.32,-6.87,2.47,-5.48,1.63,-2.61,2.88,-2.04,3.78,-3.63,2.07,-2.78,-0.81,-2.40,-2.47
2009-09-30 03:00,,,,,,,,,,,,,,,,,,,,,,,,
2009-09-30 04:00,18.33,-3.18,6.44,1.15,-3.48,-0.91,-6.17,-2.43,-5.78,3.73,-2.26,6.32,-1.63,7.34,-0.02,6.14,-0.50,5.27,0.84,2.12,3.21,1.15,2.47,1.87
2009-09-30 05:00,14.87,1.53,6.41,8.02,0.26,6.22,-4.59,7.51,-2.06,13.46,1.69,13.10,3.34,13.17,5.54,11.00,5.38,10.12,6.36,9.26,6.59,7.76,5.69,5.83
2009-09-30 06:00,12.56,8.36,1.90,14.52,-3.09,20.56,-3.14,18.57,-2.40,16.39,1.30,16.22,8.33,12.85,11.43,11.16,11.51,9.10,11.23,7.56,10.46,5.56,10.18,4.02
2009-09-30 07:00,12.48,7.19,4.17,16.01,-3.78,28.59,-3.48,27.95,-0.99,20.13,4.47,14.64,9.02,7.64,12.84,5.63,15.54,4.23,14.69,3.57,14.38,1.08,12.75,-0.86
2009-09-30 08:00,-1.49,11.86,-8.68,19.34,-12.86,29.37,-9.38,26.01,-8.04,17.86,-4.14,10.25,1.03,3.95,5.21,3.92,3.57,1.67,-0.57,1.60,-2.04,0.55,-4.74,0.90
2009-09-30 09:00,-4.76,12.36,-6.51,21.54,1.16,21.70,0.20,18.19,-5.63,13.56,-9.49,6.08,-7.64,1.20,-3.39,-0.89,-2.97,-1.60,-3.64,-2.52,-3.44,-4.97,-5.43,-3.15
2009-09-30 10:00,-0.30,12.42,2.03,18.72,5.88,19.43,2.54,10.54,-5.01,8.22,-7.18,6.76,-7.05,4.50,-6.30,-0.18,-4.91,-1.02,-3.58,-0.21,-2.74,-3.82,-3.71,-3.69
2009-09-30 11:00,-3.86,12.83,-1.74,19.49,3.01,17.86,-0.97,14.72,-0.92,10.98,-3.61,7.70,-8.00,0.99,-10.21,0.35,-9.89,-0.39,-6.00,-3.00,-5.66,-5.93,-7.66,-7.66
2009-09-30 12:00,1.97,6.10,7.56,11.90,4.60,10.62,2.69,7.56,-2.78,3.46,-7.64,0.47,-9.86,-2.99,-9.55,-1.54,-5.28,-1.54,-4.40,-1.70,-5.20,-2.88,-6.91,-7.02
2009-09-30 13:00,3.23,2.51,8.62,1.17,3.19,-0.21,2.69,-3.49,-4.10,-3.80,-10.03,-4.18,-11.41,-4.80,-10.88,-4.12,-6.85,-3.67,-5.73,-2.51,-8.23,-3.55,-9.69,-6.06
2009-09-30 14:00,7.36,1.21,14.16,-5.65,5.52,-7.14,5.36,-6.56,2.86,-5.52,-4.14,-3.29,-5.36,-1.98,-7.19,-1.79,-9.17,-2.47,-8.75,-2.87,-5.83,-3.58,-4.75,-2.64
2009-09-30 15:00,15.62,-5.33,17.40,-8.56,5.32,-10.01,8.01,-9.22,6.36,-9.29,1.08,-6.56,-0.95,-4.24,-1.03,-2.90,-3.21,-5.42,-1.78,-6.04,0.34,-4.38,1.32,-5.24
2009-09-30 16:00,1.44,5.42,10.92,-0.66,2.85,-2.61,0.09,-2.79,3.15,-1.16,2.69,-1.71,3.91,-1.25,1.90,-0.07,2.97,1.60,3.26,-0.82,3.85,-0.33,4.72,-0.81
2009-09-30 17:00,-6.74,8.45,4.06,0.35,7.75,-4.40,3.01,-4.23,2.12,-4.38,6.07,-4.37,6.51,-3.72,8.07,-3.37,7.54,-2.27,8.20,-2.39,8.99,-3.31,9.87,-4.20
2009-09-30 18:00,,,,,,,,,,,,,,,,,,,,,,,,
2009-09-30 19:00,-13.60,17.28,-12.47,6.67,-7.30,0.37,-3.33,2.47,-6.45,1.76,-4.67,-2.20,-1.90,-1.70,-0.82,-2.53,-0.44,-1.69,-0.05,-0.54,0.40,-1.03,1.60,-3.70
2009-09-30 20:00,-8.18,9.80,-12.99,1.31,-7.81,-7.49,-5.95,-6.01,-7.24,-8.37,-6.33,-10.08,-3.38,-9.11,-1.44,-8.97,-2.52,-9.91,-3.35,-10.98,-2.85,-11.98,-2.04,-12.27
2009-09-30 21:00,-4.89,19.93,-16.69,10.75,-12.24,5.17,-6.00,7.00,-10.71,5.62,-9.90,4.29,-7.13,2.29,-4.55,0.96,-2.69,1.71,-2.55,1.96,-3.99,0.81,-5.03,0.09